Houston, TX

12:17 AM CDT on April 29, 2017 (GMT -0500)
Hobby

Weather History for KHOU - October, 2012

Change the Weather History Date:

Friday, October 26, 2012

  Actual Average Record
Temperature  
Mean Temperature 63 °F 69 °F  
Max Temperature 73 °F 79 °F 92 °F (2010)
Min Temperature 53 °F 58 °F 39 °F (1892)
Degree Days  
Heating Degree Days 2 2  
Month to date heating degree days 8 17  
Since 1 July heating degree days 8 18  
Cooling Degree Days 0 5  
Month to date cooling degree days 227 203  
Year to date cooling degree days 3426 3028  
Growing Degree Days 12 (Base 50)    
Moisture  
Dew Point 55 °F    
Average Humidity 86    
Maximum Humidity 100    
Minimum Humidity 72    
Precipitation  
Precipitation 0.05 in 0.20 in 2.43 in (2009)
Month to date precipitation 1.00 4.83  
Year to date precipitation 38.82 40.82  
Sea Level Pressure  
Sea Level Pressure 30.06 in    
Wind  
Wind Speed 11 mph (NNW)    
Max Wind Speed 23 mph    
Max Gust Speed 29 mph    
Visibility 10 miles    
Events      
T = Trace of Precipitation, MM = Missing Value Source: NWS Daily Summary

Daily Weather History Graph

Daily Weather History Graph

Search for Another Location

Airport or City:

Trip Planner

Search our weather history database for the weather conditions in past years. The results will help you decide how hot, cold, wet, or windy it might be!

Date:

Astronomy

Oct. 26, 2012 Rise Set
Actual Time 7:30 AM CDT 6:39 PM CDT
Civil Twilight 7:06 AM CDT 7:03 PM CDT
Nautical Twilight 6:38 AM CDT 7:31 PM CDT
Astronomical Twilight 6:10 AM CDT 7:59 PM CDT
Moon 4:46 PM CDT (10/26) 4:38 AM CDT (10/26)
Length of Visible Light 11h 57m
Length of Day
11h 08m
Waxing Gibbous, 91% of the Moon is Illuminated
Oct 26
Waxing Gibbous
Oct 29
Full
Nov 6
Last Quarter
Nov 13
New
Nov 20
First Quarter

Hourly Weather History & Observations

Time (CDT) Temp. Dew Point Humidity Pressure Visibility Wind Dir Wind Speed Gust Speed Precip Events Conditions
12:53 AM 71.1 °F 70.0 °F 96% 29.94 in 10.0 mi South 3.5 mph - N/A   Scattered Clouds
1:53 AM 70.0 °F 69.1 °F 97% 29.95 in 10.0 mi Calm Calm - N/A   Mostly Cloudy
2:53 AM 66.9 °F 66.9 °F 100% 29.94 in 10.0 mi Calm Calm - N/A   Scattered Clouds
3:53 AM 69.1 °F 69.1 °F 100% 29.94 in 10.0 mi WNW 4.6 mph - N/A   Overcast
4:53 AM 69.1 °F 69.1 °F 100% 29.94 in 10.0 mi WNW 5.8 mph - N/A   Mostly Cloudy
5:10 AM 69.8 °F 69.8 °F 100% 29.93 in 10.0 mi NW 9.2 mph - N/A   Overcast
5:42 AM 66.2 °F 64.4 °F 94% 29.95 in 10.0 mi NNW 11.5 mph - N/A   Overcast
5:53 AM 66.0 °F 63.0 °F 90% 29.97 in 10.0 mi NNW 9.2 mph - N/A   Overcast
6:53 AM 63.0 °F 60.1 °F 90% 30.00 in 10.0 mi NNW 15.0 mph - N/A   Overcast
7:53 AM 61.0 °F 57.0 °F 87% 30.01 in 10.0 mi North 12.7 mph - N/A   Overcast
8:53 AM 61.0 °F 55.9 °F 83% 30.05 in 10.0 mi NNW 12.7 mph - N/A   Overcast
9:39 AM 60.8 °F 55.4 °F 82% 30.06 in 10.0 mi North 15.0 mph - N/A   Overcast
9:53 AM 61.0 °F 54.0 °F 78% 30.08 in 10.0 mi NNW 12.7 mph - N/A   Overcast
10:53 AM 62.1 °F 54.0 °F 75% 30.09 in 10.0 mi NNW 15.0 mph - N/A   Overcast
11:53 AM 62.1 °F 52.0 °F 70% 30.09 in 10.0 mi North 18.4 mph - N/A   Overcast
12:53 PM 57.9 °F 51.1 °F 78% 30.11 in 10.0 mi North 21.9 mph - N/A   Overcast
1:53 PM 61.0 °F 52.0 °F 72% 30.08 in 10.0 mi North 15.0 mph - N/A   Mostly Cloudy
2:38 PM 62.6 °F 51.8 °F 68% 30.05 in 10.0 mi NNW 13.8 mph 24.2 mph N/A   Overcast
2:53 PM 59.0 °F 50.0 °F 72% 30.07 in 10.0 mi NNW 18.4 mph 24.2 mph N/A   Overcast
3:53 PM 59.0 °F 50.0 °F 72% 30.08 in 10.0 mi NNW 18.4 mph - N/A   Overcast
4:53 PM 57.0 °F 50.0 °F 77% 30.08 in 10.0 mi North 21.9 mph 27.6 mph N/A   Overcast
5:14 PM 55.4 °F 51.8 °F 88% 30.07 in 10.0 mi NNW 16.1 mph - N/A   Overcast
5:53 PM 55.9 °F 51.1 °F 84% 30.10 in 10.0 mi North 19.6 mph 26.5 mph N/A   Overcast
6:53 PM 55.0 °F 50.0 °F 83% 30.13 in 10.0 mi North 19.6 mph 28.8 mph N/A   Overcast
7:42 PM 53.6 °F 51.8 °F 94% 30.14 in 10.0 mi North 18.4 mph - N/A   Overcast
7:53 PM 54.0 °F 50.0 °F 86% 30.15 in 10.0 mi North 18.4 mph - N/A   Overcast
8:45 PM 53.6 °F 48.2 °F 82% 30.15 in 10.0 mi North 23.0 mph - N/A   Overcast
8:53 PM 54.0 °F 48.9 °F 83% 30.16 in 10.0 mi NNE 21.9 mph - N/A   Overcast
9:53 PM 54.0 °F 48.0 °F 80% 30.17 in 10.0 mi North 21.9 mph - N/A   Overcast
10:53 PM 53.6 °F 46.4 °F 77% 30.17 in 10.0 mi North 17.3 mph 29.9 mph N/A   Overcast
11:31 PM 53.6 °F 46.4 °F 77% 30.17 in 10.0 mi North 21.9 mph 28.8 mph N/A   Mostly Cloudy
11:53 PM 54.0 °F 46.0 °F 75% 30.19 in 10.0 mi North 20.7 mph 32.2 mph N/A   Mostly Cloudy